Theta_e
344 346 346 346 344 339 339 344 344 343 337 332 342 344 342 342 344 344 345 345 344 345 344 342 341 341 341 338 332 329 328 327 326 326 327 327 327 330 336 332 327 326 329
344 344 344 344 346 345 343 343 343 344 346 345 344 344 345 345 346 346 345 346 344 346 345 345 343 341 340 340 342 341 336 335 333 332 329 328 327 328 336 336 334 332 331
343 341 342 343 342 344 345 346 346 344 344 345 345 345 344 345 345 346 345 345 344 344 345 345 345 344 342 340 340 342 342 342 339 337 337 337 334 331 328 329 333 334 335
341 343 344 345 345 343 344 343 347 346 345 345 343 345 345 344 344 345 346 343 343 343 345 344 344 344 345 343 341 339 341 341 341 340 341 339 337 337 337 336 331 331 332
343 341 341 342 342 345 346 345 342 345 343 344 340 344 345 343 344 343 343 343 344 344 345 346 345 344 344 344 345 344 338 339 341 341 341 341 341 340 339 338 338 339 339
344 346 342 345 343 343 343 345 343 344 345 341 342 341 344 343 343 343 342 342 344 345 346 344 344 346 345 344 345 344 344 340 338 341 341 340 341 340 341 341 339 339 339
345 343 342 342 343 342 338 342 342 344 343 343 339 343 343 342 345 344 344 344 344 345 344 344 345 345 343 339 344 344 344 339 341 342 341 341 340 340 341 341 341 341 341
344 344 344 343 340 337 341 343 342 341 340 341 342 342 342 341 342 344 341 343 343 340 340 343 344 344 342 342 342 343 345 343 339 343 342 342 341 341 341 341 341 341 341
343 343 343 344 341 339 340 339 339 340 340 338 337 342 343 342 341 340 341 342 340 342 342 343 345 342 342 344 344 343 342 341 342 344 344 343 341 341 341 341 341 341 340
339 342 343 343 341 342 340 338 339 339 337 337 340 340 340 341 342 340 340 340 342 343 342 336 336 339 341 342 342 340 339 337 339 340 342 342 341 342 341 341 341 340 339
336 341 342 343 343 341 340 338 339 340 339 340 340 339 340 339 341 342 342 341 339 338 338 334 335 339 340 340 340 341 341 341 340 340 341 341 341 341 340 341 340 338 339
335 340 342 342 343 340 339 340 341 339 341 341 341 342 341 341 341 342 343 341 339 338 337 338 339 341 340 339 340 342 342 342 342 341 340 341 340 340 340 339 337 337 338
341 336 336 340 338 334 336 339 341 341 341 340 340 343 343 343 342 343 342 341 339 340 340 341 340 340 339 340 341 340 340 340 341 341 341 340 339 339 338 337 336 337 338
343 342 340 336 333 332 333 334 336 338 336 335 333 333 340 342 341 341 341 339 341 342 342 339 340 339 338 339 339 339 338 339 339 339 339 338 338 338 337 336 335 337 338
344 343 340 339 340 338 336 337 336 336 337 337 337 337 337 336 335 337 338 340 342 342 341 340 340 339 339 339 339 338 337 337 337 337 338 338 338 337 336 335 335 337 337
344 343 341 339 340 341 338 338 339 336 334 334 334 333 337 340 338 338 338 338 339 342 341 340 340 339 338 339 338 337 336 335 336 336 335 336 336 336 333 333 335 336 336
344 343 343 342 339 340 339 339 339 339 340 341 337 336 337 337 336 335 335 336 337 340 341 342 340 339 337 338 337 335 336 336 336 335 336 336 334 333 332 331 333 335 334
345 345 342 341 338 340 338 338 339 337 339 339 339 338 339 339 339 339 340 340 339 340 340 342 341 338 337 336 337 336 336 335 334 334 333 332 331 330 329 328 328 327 327
340 341 339 340 339 339 338 339 339 336 337 340 339 338 338 338 339 339 339 339 340 340 341 340 341 339 336 336 336 334 333 333 333 332 332 330 329 327 326 326 325 325 324
341 339 339 340 340 338 339 338 337 338 337 338 338 337 336 336 337 337 336 336 337 340 340 341 340 339 337 335 334 334 333 332 332 331 330 328 328 326 325 324 323 323 322
343 339 340 341 340 340 339 339 339 339 338 333 337 337 336 335 336 334 327 332 339 342 340 339 339 338 336 335 334 334 333 333 332 331 329 328 327 326 325 324 323 322 319
345 341 341 341 341 340 340 339 339 340 339 335 335 334 335 335 332 326 329 336 339 338 338 338 339 338 336 335 334 333 333 332 331 331 330 328 327 326 325 324 322 320 316
345 341 342 342 341 341 340 340 340 338 339 336 336 335 335 334 335 333 328 335 336 336 335 335 335 336 337 337 336 334 334 334 333 332 331 330 328 327 326 324 323 318 313
345 343 342 342 341 340 338 339 339 338 337 336 336 335 334 334 334 333 328 329 332 334 334 334 335 336 336 336 337 337 335 334 332 332 331 330 329 329 328 325 322 321 318
345 344 343 342 341 340 340 340 337 335 335 332 336 335 334 334 333 332 331 331 331 328 331 334 332 331 333 332 332 332 333 333 332 330 331 330 330 329 329 327 324 323 322
326 341 343 343 341 340 339 338 334 333 335 334 333 334 332 334 332 332 330 331 332 331 330 329 326 329 331 332 332 332 332 331 332 331 330 330 328 329 329 327 327 325 324
Wind_Speed
13 12 11 11 8 8 9 11 9 9 12 16 13 11 10 12 7 7 7 10 7 8 7 4 6 6 7 7 8 9 9 9 10 10 11 10 11 11 10 10 9 9 9
14 13 12 13 12 11 9 10 10 10 11 13 14 14 9 13 11 5 11 14 3 7 7 7 6 8 9 9 11 11 11 11 10 10 11 12 12 12 12 12 12 10 10
16 16 16 16 13 12 11 10 9 11 12 12 13 12 11 14 13 13 12 13 11 11 10 9 9 10 10 12 11 12 13 14 13 13 14 15 14 14 14 15 15 13 13
18 18 20 18 17 17 15 14 14 14 12 13 13 16 13 10 12 11 14 12 12 14 14 14 14 13 13 13 15 15 15 15 16 15 15 16 17 17 17 16 15 15 15
19 21 21 21 20 20 20 18 16 16 13 13 12 17 17 15 11 12 14 13 16 14 15 16 17 15 15 17 18 15 17 19 18 19 18 16 18 18 19 18 17 18 18
19 21 21 24 23 20 21 21 19 17 16 15 15 18 20 18 17 17 16 18 18 16 18 18 22 23 23 21 22 23 21 23 27 23 21 17 17 17 17 18 18 19 19
20 22 23 23 23 21 23 21 18 18 19 17 16 16 17 19 18 18 18 19 20 20 23 21 21 22 24 22 23 25 25 28 27 25 23 20 21 19 18 18 17 17 18
22 26 28 28 28 24 21 22 23 22 20 17 17 17 16 20 21 18 16 18 20 20 22 22 21 25 23 18 21 21 24 24 22 23 21 20 21 20 19 18 17 16 17
15 19 25 30 31 28 27 23 24 25 24 20 19 15 6 10 10 16 17 18 16 15 16 14 11 8 13 16 18 19 20 18 19 19 22 19 20 20 19 18 17 15 14
7 10 13 23 26 28 29 27 23 21 22 22 22 22 20 16 9 7 11 13 10 11 10 5 4 8 14 16 16 17 17 19 18 18 18 16 17 20 18 16 15 14 15
6 7 9 16 17 20 23 25 24 22 21 22 22 20 20 22 23 23 18 16 14 11 12 11 8 10 12 12 12 14 14 14 16 15 14 14 14 14 14 13 12 11 10
2 3 8 11 12 15 18 20 21 20 19 20 21 23 24 26 27 26 21 19 15 15 14 12 13 13 11 10 10 9 10 10 11 12 12 11 11 10 10 10 8 6 8
7 6 8 11 11 11 12 16 17 17 15 14 15 15 18 20 21 18 17 16 15 13 12 9 11 9 8 6 6 7 7 7 8 9 9 9 9 9 9 8 7 7 8
5 9 7 9 11 10 10 10 11 14 13 13 10 11 12 14 12 13 17 15 14 15 15 13 9 7 5 6 6 5 6 7 7 8 8 9 9 9 9 8 7 9 10
7 9 8 8 8 8 10 11 11 12 11 11 12 12 12 14 14 15 15 17 16 16 18 15 9 11 12 8 7 6 6 6 7 7 8 9 8 8 7 8 9 11 12
9 8 8 8 8 6 8 10 11 12 11 9 9 8 10 10 10 10 12 12 13 18 17 14 15 14 14 12 9 8 7 7 8 8 7 7 7 8 10 10 11 11 11
12 10 10 8 8 7 8 8 7 7 9 10 9 13 11 11 10 11 12 12 15 16 18 17 15 15 16 14 10 9 11 11 10 9 9 8 8 8 8 9 10 12 12
13 12 15 14 12 10 8 7 6 6 8 10 8 6 7 9 10 10 10 10 13 16 17 20 17 19 19 16 11 11 14 12 11 10 10 9 9 9 9 8 9 10 11
15 14 15 11 12 11 10 9 8 7 11 9 7 8 8 10 10 10 10 10 12 14 19 22 20 19 19 18 16 14 12 11 11 11 10 10 10 9 8 8 9 10 11
13 12 13 9 7 7 9 9 10 11 8 14 11 10 12 13 10 9 9 10 10 10 11 17 23 20 21 22 19 17 15 13 10 11 12 11 11 10 10 9 9 10 10
14 12 13 11 10 11 11 12 14 14 13 10 14 12 12 8 9 10 10 9 6 4 7 12 14 21 22 24 25 21 17 10 12 11 13 13 13 12 11 9 9 10 11
16 17 16 15 15 14 14 16 16 17 15 11 12 14 12 8 4 5 6 5 4 5 6 7 10 17 21 24 24 22 17 18 17 15 13 13 14 14 13 11 10 10 11
19 18 20 20 18 15 14 16 17 17 17 14 14 14 12 10 8 4 4 6 6 6 5 6 8 10 14 18 20 21 20 19 17 13 9 14 15 15 14 13 12 11 10
22 22 22 21 18 16 15 15 17 16 19 17 15 14 12 10 7 6 4 6 7 8 8 7 9 10 10 11 13 15 16 18 18 17 15 14 13 14 13 12 12 9 8
26 24 25 24 23 20 17 15 15 15 17 16 15 14 13 10 9 8 6 7 6 6 11 9 9 10 10 10 12 14 20 21 23 20 17 17 18 16 14 16 17 14 13
59 31 29 27 25 20 16 15 15 16 18 19 20 17 15 12 12 9 9 8 7 6 5 4 4 6 7 9 11 14 16 19 22 21 22 21 20 19 19 17 19 20 18
Wind_Direction
214 211 216 215 205 193 199 196 188 180 190 196 202 195 184 198 221 253 228 237 237 284 253 262 245 255 267 260 249 242 239 238 235 234 238 238 242 233 234 239 239 239 239
221 222 207 213 202 207 208 210 215 203 204 198 212 221 214 224 219 243 240 233 264 243 263 271 269 252 257 264 252 254 251 251 250 248 243 240 242 240 237 247 245 243 243
212 219 213 210 202 216 221 224 216 207 211 221 228 224 220 215 227 235 238 248 264 258 250 266 268 274 259 252 249 248 250 250 254 251 253 250 248 247 240 241 244 250 254
212 212 211 212 211 207 223 230 228 225 224 230 225 218 220 212 221 234 231 250 256 264 270 275 272 273 270 256 257 250 245 246 243 248 252 250 248 249 249 244 245 252 253
230 226 220 219 223 218 222 220 230 229 233 232 234 217 219 215 217 226 236 250 251 257 261 264 268 258 259 267 263 260 274 264 253 246 244 249 250 249 251 251 250 254 254
236 233 229 230 230 227 233 217 226 226 228 239 248 227 219 211 219 232 237 247 255 264 267 266 259 258 256 260 258 255 270 273 262 250 244 243 247 249 253 252 255 254 256
241 242 236 232 235 231 230 218 221 232 240 239 241 237 238 238 232 240 244 247 253 264 268 264 261 267 262 260 259 266 266 270 261 249 244 241 243 248 252 254 258 257 256
252 250 243 237 235 238 233 228 229 230 240 234 243 248 258 250 248 248 253 251 264 270 258 259 264 246 251 261 258 260 267 264 249 243 241 246 245 248 251 256 262 263 261
252 251 245 231 228 225 231 235 239 243 247 250 249 236 221 237 233 248 254 255 263 265 258 244 244 249 256 262 261 260 259 252 245 245 244 252 245 251 253 261 263 264 257
261 256 233 222 230 223 226 230 236 241 241 243 238 241 238 240 234 228 238 257 250 252 246 197 236 244 263 269 274 271 255 250 248 245 245 250 241 246 254 257 263 261 260
266 264 213 206 215 213 216 226 234 237 244 246 244 238 236 239 245 246 253 249 248 241 231 253 267 262 261 268 272 264 259 251 243 241 245 245 241 237 244 247 255 259 250
209 205 191 192 201 202 212 219 224 236 243 247 246 242 240 237 239 243 237 243 240 245 249 256 265 267 262 265 258 255 251 249 239 234 232 225 225 225 231 236 228 215 173
191 177 176 174 176 187 204 215 224 228 234 240 243 240 236 234 237 234 236 242 247 248 251 248 258 261 263 256 254 240 233 225 217 213 209 208 213 213 209 197 185 182 179
202 200 196 192 191 199 191 195 207 218 226 229 225 228 217 207 221 241 238 237 232 247 254 266 260 253 245 224 242 239 230 213 209 208 211 205 195 180 180 193 195 177 169
213 208 197 188 188 192 213 220 210 213 221 220 224 226 231 226 217 230 242 242 244 236 253 256 243 214 216 238 214 220 202 199 185 173 170 171 175 190 205 197 186 180 175
222 209 188 197 205 215 217 218 219 221 228 224 215 209 216 219 218 222 232 235 242 242 246 242 234 215 218 215 227 216 199 182 179 189 199 193 209 197 184 182 182 178 178
231 233 231 228 225 226 206 206 213 224 222 220 229 234 231 233 231 241 249 245 241 236 238 240 230 212 213 216 216 188 184 183 193 201 212 214 205 196 188 177 173 172 179
227 240 241 241 224 212 214 215 219 233 228 222 218 217 233 247 248 245 240 242 244 239 238 239 226 207 210 212 210 202 188 189 193 199 201 201 202 200 197 194 204 214 217
241 237 221 225 218 230 221 230 244 278 254 240 241 244 248 256 255 247 249 255 255 248 240 237 223 206 200 203 203 202 197 198 199 199 202 201 199 197 199 211 218 226 228
229 231 221 221 232 231 243 247 242 246 253 247 238 237 252 258 244 253 262 253 253 245 247 234 229 212 203 202 209 212 208 204 202 208 203 202 206 211 213 222 231 239 243
228 226 205 215 232 243 250 258 255 252 253 245 229 231 256 246 259 263 260 249 224 174 180 180 205 207 200 204 205 210 217 214 211 214 215 214 218 221 226 235 244 251 254
233 217 205 218 228 242 265 278 267 257 256 241 237 242 238 239 240 257 233 208 156 172 166 194 227 211 209 209 212 215 217 212 218 221 221 223 229 233 238 244 249 252 252
229 230 222 220 227 245 256 268 276 261 254 251 244 235 237 243 233 264 222 191 185 201 199 199 207 217 219 221 217 218 224 225 232 233 243 237 242 243 241 243 247 245 247
229 229 230 234 233 235 242 252 262 250 243 250 244 242 239 234 233 223 200 195 208 202 205 199 196 198 201 213 221 235 238 237 237 243 241 242 244 237 246 239 231 234 225
248 236 234 236 233 229 238 253 258 257 235 225 225 229 235 236 230 223 210 189 172 179 200 203 213 217 215 212 220 222 223 225 236 239 244 247 254 251 255 247 239 241 241
299 248 235 234 232 233 230 240 252 257 238 226 220 226 243 242 238 244 237 233 205 179 164 163 187 203 209 221 232 234 237 231 235 238 243 239 253 255 259 260 252 246 247